Saltar para o conteúdo principal

Guarda

ID 1210683 · 40.5333, -7.2667 mapa

Última leitura · 2026-05-09 18:00 (Europe/Lisbon)

Temperatura
9.1 °C
Humidade
91 %
Pressão
Precipitação
1.5 mm
Radiação
332 W/m²
Velocidade do vento
14.0 km/h
Direcção do vento
SW · Sudoeste

Histórico de 24 horas

Hora (Europe/Lisbon) Temperatura Humidade Pressão Chuva Vento Direcção
2026-05-09 18:00 9.1 °C 91 % 1.5 mm 14.0 km/h SW
2026-05-09 17:00 9.7 °C 98 % 0.0 mm 14.8 km/h S
2026-05-09 16:00 8.7 °C 99 % 0.0 mm 16.2 km/h S
2026-05-09 15:00 7.0 °C 100 % 3.6 mm 9.0 km/h SE
2026-05-09 14:00 7.9 °C 100 % 6.2 mm 8.6 km/h SE
2026-05-09 13:00 8.3 °C 100 % 0.8 mm 18.7 km/h SE
2026-05-09 12:00 7.5 °C 100 % 1.0 mm 19.4 km/h SE
2026-05-09 11:00 7.3 °C 100 % 0.8 mm 20.9 km/h SE
2026-05-09 10:00 7.9 °C 95 % 0.4 mm 29.2 km/h SE
2026-05-09 09:00 7.9 °C 91 % 0.0 mm 18.0 km/h SE
2026-05-09 08:00 7.8 °C 88 % 0.0 mm 15.5 km/h SE
2026-05-09 07:00 7.4 °C 99 % 0.0 mm 16.9 km/h SE
2026-05-09 06:00 7.4 °C 100 % 0.0 mm 13.0 km/h SE
2026-05-09 05:00 7.6 °C 100 % 0.0 mm 16.6 km/h SE
2026-05-09 04:00 7.9 °C 100 % 0.0 mm 23.0 km/h SE
2026-05-09 03:00 8.1 °C 100 % 0.0 mm 19.1 km/h SE
2026-05-09 02:00 8.8 °C 87 % 0.0 mm 17.3 km/h SE
2026-05-09 01:00 9.5 °C 76 % 0.1 mm 13.7 km/h SE
2026-05-09 00:00 10.3 °C 63 % 0.0 mm 14.0 km/h SE
2026-05-08 23:00 9.7 °C 69 % 0.0 mm 19.8 km/h SE
2026-05-08 22:00 10.3 °C 67 % 0.0 mm 9.7 km/h SE
2026-05-08 21:00 11.0 °C 63 % 0.0 mm 11.2 km/h SE
2026-05-08 20:00 11.4 °C 62 % 0.0 mm 8.3 km/h SE
2026-05-08 19:00 11.9 °C 60 % 0.0 mm 10.4 km/h S